timestamp,wind_dir_avg,wind_spd_avg,wind_spd_max_dir,wind_spd_gust,battery_voltage,lat,long
2022-05-11 00:04:01+00:00,211.0,8.34,212.0,9.54,12.97,47.59359,-54.27349
2022-05-11 00:14:00+00:00,213.0,8.04,213.0,8.89,12.49,47.59359,-54.27349
2022-05-11 00:24:00+00:00,210.0,7.38,206.0,8.34,12.49,47.59359,-54.27349
2022-05-11 00:34:00+00:00,215.0,7.04,214.0,8.31,12.49,47.59359,-54.27349
2022-05-11 00:44:00+00:00,215.0,7.43,218.0,8.12,12.49,47.59359,-54.27349
2022-05-11 00:54:00+00:00,215.0,7.51,217.0,8.24,12.49,47.59359,-54.27349
2022-05-11 01:04:00+00:00,212.0,7.17,215.0,7.68,12.49,47.59359,-54.27349
2022-05-11 01:14:01+00:00,213.0,6.91,217.0,7.47,12.33,47.59359,-54.27349
2022-05-11 01:24:01+00:00,212.0,7.26,213.0,7.96,12.33,47.59359,-54.27349
2022-05-11 01:34:01+00:00,217.0,7.36,216.0,7.96,12.33,47.59359,-54.27349
2022-05-11 01:44:01+00:00,215.0,6.21,214.0,7.05,12.33,47.59359,-54.27349
2022-05-11 01:54:01+00:00,218.0,6.34,216.0,7.09,12.33,47.59359,-54.27349
2022-05-11 02:04:01+00:00,221.0,5.5,237.0,7.45,12.33,47.59359,-54.27349
2022-05-11 02:14:01+00:00,227.0,5.33,241.0,7.11,12.33,47.59359,-54.27349
2022-05-11 02:24:01+00:00,235.0,5.75,240.0,7.39,12.33,47.59359,-54.27349
2022-05-11 02:34:01+00:00,229.0,5.34,239.0,7.41,12.33,47.59359,-54.27349
2022-05-11 02:44:01+00:00,238.0,7.15,238.0,7.88,12.33,47.59359,-54.27349
2022-05-11 02:54:01+00:00,236.0,5.93,242.0,7.37,12.33,47.59359,-54.27349
2022-05-11 03:04:01+00:00,229.0,5.53,228.0,6.56,12.33,47.59359,-54.27349
2022-05-11 03:14:00+00:00,228.0,6.2,223.0,7.39,12.25,47.59359,-54.27349
2022-05-11 03:24:00+00:00,229.0,5.59,233.0,6.47,12.25,47.59359,-54.27349
2022-05-11 03:34:00+00:00,233.0,5.17,237.0,5.93,12.25,47.59359,-54.27349
2022-05-11 03:44:00+00:00,226.0,5.51,233.0,7.27,12.25,47.59359,-54.27349
2022-05-11 03:54:00+00:00,231.0,5.02,233.0,6.12,12.25,47.59359,-54.27349
2022-05-11 04:04:00+00:00,227.0,5.48,241.0,7.21,12.25,47.59359,-54.27349
2022-05-11 04:14:01+00:00,228.0,5.39,231.0,6.15,12.25,47.59359,-54.27349
2022-05-11 04:24:01+00:00,241.0,6.76,241.0,7.33,12.25,47.59359,-54.27349
2022-05-11 04:34:01+00:00,235.0,6.36,239.0,7.49,12.25,47.59359,-54.27349
2022-05-11 04:44:01+00:00,238.0,6.47,239.0,7.41,12.25,47.59359,-54.27349
2022-05-11 04:54:01+00:00,243.0,5.71,246.0,7.03,12.25,47.59359,-54.27349
2022-05-11 05:04:01+00:00,243.0,5.45,245.0,7.18,12.25,47.59359,-54.27349
2022-05-11 05:14:01+00:00,246.0,6.44,247.0,7.16,12.33,47.59359,-54.27349
2022-05-11 05:24:01+00:00,246.0,6.57,249.0,7.25,12.33,47.59359,-54.27349
2022-05-11 05:34:01+00:00,228.0,4.9,240.0,6.81,12.33,47.59359,-54.27349
2022-05-11 05:44:01+00:00,242.0,6.29,245.0,7.26,12.33,47.59359,-54.27349
2022-05-11 05:54:01+00:00,244.0,6.74,246.0,7.22,12.33,47.59359,-54.27349
2022-05-11 06:04:01+00:00,230.0,4.98,231.0,5.94,12.33,47.59359,-54.27349
2022-05-11 06:14:01+00:00,226.0,5.34,230.0,6.2,12.25,47.59359,-54.27349
2022-05-11 06:24:01+00:00,235.0,5.68,241.0,7.29,12.25,47.59359,-54.27349
2022-05-11 06:34:01+00:00,240.0,6.92,238.0,7.41,12.25,47.59359,-54.27349
2022-05-11 06:44:01+00:00,247.0,6.52,248.0,7.11,12.25,47.59359,-54.27349
2022-05-11 06:54:01+00:00,243.0,6.72,245.0,7.21,12.25,47.59359,-54.27349
2022-05-11 07:04:01+00:00,239.0,6.33,240.0,6.76,12.25,47.59359,-54.27349
2022-05-11 07:14:00+00:00,238.0,6.76,234.0,7.32,12.17,47.59359,-54.27349
2022-05-11 07:24:00+00:00,243.0,6.76,242.0,7.15,12.17,47.59359,-54.27349
2022-05-11 07:34:00+00:00,249.0,6.41,250.0,7.11,12.17,47.59359,-54.27349
2022-05-11 07:44:00+00:00,255.0,6.17,258.0,6.44,12.17,47.59359,-54.27349
2022-05-11 07:54:00+00:00,244.0,6.4,246.0,6.9,12.17,47.59359,-54.27349
2022-05-11 08:04:00+00:00,239.0,4.4,247.0,6.21,12.17,47.59359,-54.27349
2022-05-11 08:14:01+00:00,248.0,6.13,249.0,6.87,12.17,47.59359,-54.27349
2022-05-11 08:24:01+00:00,257.0,5.55,261.0,6.46,12.17,47.59359,-54.27349
2022-05-11 08:34:01+00:00,258.0,5.3,260.0,5.81,12.17,47.59359,-54.27349
2022-05-11 08:44:01+00:00,288.0,0.86,271.0,1.26,12.17,47.59359,-54.27349
2022-05-11 08:54:01+00:00,312.0,1.37,314.0,1.54,12.17,47.59359,-54.27349
2022-05-11 09:04:01+00:00,347.0,1.52,349.0,1.69,12.17,47.59359,-54.27349
2022-05-11 09:14:01+00:00,350.0,1.35,351.0,1.47,12.41,47.59359,-54.27349
2022-05-11 09:24:01+00:00,332.0,1.16,326.0,1.37,12.41,47.59359,-54.27349
2022-05-11 09:34:01+00:00,341.0,0.71,344.0,0.88,12.41,47.59359,-54.27349
2022-05-11 09:44:01+00:00,341.0,0.65,343.0,0.78,12.41,47.59359,-54.27349
2022-05-11 09:54:01+00:00,197.0,0.81,195.0,0.96,12.41,47.59359,-54.27349
2022-05-11 10:04:01+00:00,192.0,1.97,195.0,2.18,12.41,47.59359,-54.27349
2022-05-11 10:14:01+00:00,204.0,3.06,205.0,3.38,13.37,47.59359,-54.27349
2022-05-11 10:24:01+00:00,203.0,3.5,204.0,3.78,13.37,47.59359,-54.27349
2022-05-11 10:34:01+00:00,211.0,5.0,213.0,5.52,13.37,47.59359,-54.27349
2022-05-11 10:44:01+00:00,204.0,5.25,201.0,5.81,13.37,47.59359,-54.27349
2022-05-11 10:54:01+00:00,207.0,5.35,211.0,6.18,13.37,47.59359,-54.27349
2022-05-11 11:04:01+00:00,208.0,6.58,196.0,8.08,13.37,47.59359,-54.27349
2022-05-11 11:14:01+00:00,210.0,7.22,208.0,7.7,13.6,47.59359,-54.27349
2022-05-11 11:24:01+00:00,209.0,7.23,211.0,8.05,13.6,47.59359,-54.27349
2022-05-11 11:34:01+00:00,210.0,6.49,209.0,7.95,13.6,47.59359,-54.27349
2022-05-11 11:44:01+00:00,206.0,6.41,209.0,7.64,13.6,47.59359,-54.27349
2022-05-11 11:54:01+00:00,206.0,7.74,208.0,8.52,13.6,47.59359,-54.27349
2022-05-11 12:04:01+00:00,203.0,7.82,207.0,8.62,13.6,47.59359,-54.27349
2022-05-11 12:14:00+00:00,203.0,7.63,208.0,8.57,14.08,47.59359,-54.27349
2022-05-11 12:24:00+00:00,196.0,7.8,200.0,8.61,14.08,47.59359,-54.27349
2022-05-11 12:34:00+00:00,201.0,8.22,204.0,9.38,14.08,47.59359,-54.27349
2022-05-11 12:44:00+00:00,202.0,8.03,208.0,9.13,14.08,47.59359,-54.27349
2022-05-11 12:54:00+00:00,204.0,8.78,202.0,10.24,14.08,47.59359,-54.27349
2022-05-11 13:04:00+00:00,207.0,9.35,205.0,10.35,14.08,47.59359,-54.27349
2022-05-11 13:14:00+00:00,209.0,9.21,207.0,10.63,14.32,47.59359,-54.27349
2022-05-11 13:24:00+00:00,210.0,9.65,211.0,10.7,14.32,47.59359,-54.27349
2022-05-11 13:34:00+00:00,210.0,10.73,208.0,11.51,14.32,47.59359,-54.27349
2022-05-11 13:44:00+00:00,210.0,9.74,209.0,10.84,14.32,47.59359,-54.27349
2022-05-11 13:54:00+00:00,212.0,9.91,210.0,11.23,14.32,47.59359,-54.27349
2022-05-11 14:04:00+00:00,210.0,8.86,213.0,10.06,14.32,47.59359,-54.27349
2022-05-11 14:14:00+00:00,214.0,10.19,212.0,11.39,13.76,47.59359,-54.27349
2022-05-11 14:24:00+00:00,211.0,10.42,212.0,11.8,13.76,47.59359,-54.27349
2022-05-11 14:34:00+00:00,209.0,10.03,209.0,11.28,13.76,47.59359,-54.27349
2022-05-11 14:44:00+00:00,204.0,10.24,207.0,11.39,13.76,47.59359,-54.27349
2022-05-11 14:54:00+00:00,203.0,10.01,204.0,11.51,13.76,47.59359,-54.27349
2022-05-11 15:04:00+00:00,209.0,11.08,206.0,12.45,13.76,47.59359,-54.27349
2022-05-11 15:14:00+00:00,210.0,10.95,210.0,12.12,14.4,47.59359,-54.27349
2022-05-11 15:24:00+00:00,211.0,10.9,211.0,12.04,14.4,47.59359,-54.27349
2022-05-11 15:34:00+00:00,210.0,10.81,211.0,12.07,14.4,47.59359,-54.27349
2022-05-11 15:44:00+00:00,207.0,10.83,208.0,11.81,14.4,47.59359,-54.27349
2022-05-11 15:54:00+00:00,207.0,9.78,209.0,10.97,14.4,47.59359,-54.27349
2022-05-11 16:04:00+00:00,210.0,10.83,215.0,13.2,14.4,47.59359,-54.27349
2022-05-11 16:14:00+00:00,210.0,11.7,211.0,13.0,14.4,47.59359,-54.27349
2022-05-11 16:24:00+00:00,210.0,11.41,210.0,12.98,14.4,47.59359,-54.27349
2022-05-11 16:34:00+00:00,210.0,11.07,206.0,13.06,14.4,47.59359,-54.27349
2022-05-11 16:44:00+00:00,209.0,11.35,211.0,12.64,14.4,47.59359,-54.27349
2022-05-11 16:54:00+00:00,211.0,11.78,213.0,13.67,14.4,47.59359,-54.27349
2022-05-11 17:04:00+00:00,210.0,12.31,210.0,13.94,14.4,47.59359,-54.27349
2022-05-11 17:14:01+00:00,210.0,12.36,209.0,13.48,14.4,47.59359,-54.27349
2022-05-11 17:24:01+00:00,207.0,11.65,211.0,13.27,14.4,47.59359,-54.27349
2022-05-11 17:34:01+00:00,202.0,11.47,206.0,13.55,14.4,47.59359,-54.27349
2022-05-11 17:44:01+00:00,202.0,11.78,199.0,13.4,14.4,47.59359,-54.27349
2022-05-11 17:54:01+00:00,207.0,11.5,208.0,13.51,14.4,47.59359,-54.27349
2022-05-11 18:04:01+00:00,210.0,10.94,214.0,12.81,14.4,47.59359,-54.27349
2022-05-11 18:14:01+00:00,209.0,11.16,206.0,12.77,13.92,47.59359,-54.27349
2022-05-11 18:24:01+00:00,211.0,11.57,209.0,13.21,13.92,47.59359,-54.27349
2022-05-11 18:34:01+00:00,215.0,11.13,215.0,12.65,13.92,47.59359,-54.27349
2022-05-11 18:44:01+00:00,212.0,10.59,214.0,11.98,13.92,47.59359,-54.27349
2022-05-11 18:54:01+00:00,211.0,10.1,213.0,11.58,13.92,47.59359,-54.27349
2022-05-11 19:04:01+00:00,209.0,10.95,212.0,12.48,13.92,47.59359,-54.27349
2022-05-11 19:14:01+00:00,208.0,11.51,211.0,12.35,13.68,47.59359,-54.27349
2022-05-11 19:24:01+00:00,206.0,10.73,207.0,11.76,13.68,47.59359,-54.27349
2022-05-11 19:34:01+00:00,208.0,11.48,209.0,13.1,13.68,47.59359,-54.27349
2022-05-11 19:44:01+00:00,209.0,11.24,212.0,12.86,13.68,47.59359,-54.27349
2022-05-11 19:54:01+00:00,206.0,11.67,201.0,13.48,13.68,47.59359,-54.27349
2022-05-11 20:04:01+00:00,208.0,10.72,207.0,12.31,13.68,47.59359,-54.27349
2022-05-11 20:14:01+00:00,208.0,10.69,202.0,11.74,13.76,47.59359,-54.27349
2022-05-11 20:24:01+00:00,209.0,10.76,211.0,12.01,13.76,47.59359,-54.27349
2022-05-11 20:34:01+00:00,213.0,11.41,212.0,13.27,13.76,47.59359,-54.27349
2022-05-11 20:44:01+00:00,211.0,11.79,212.0,13.29,13.76,47.59359,-54.27349
2022-05-11 20:54:01+00:00,208.0,10.83,205.0,13.2,13.76,47.59359,-54.27349
2022-05-11 21:04:01+00:00,207.0,9.82,204.0,10.78,13.76,47.59359,-54.27349
2022-05-11 21:14:00+00:00,207.0,10.21,211.0,11.7,13.68,47.59359,-54.27349
2022-05-11 21:24:00+00:00,217.0,10.36,217.0,11.38,13.68,47.59359,-54.27349
2022-05-11 21:34:00+00:00,226.0,12.46,233.0,15.48,13.68,47.59359,-54.27349
2022-05-11 21:44:00+00:00,217.0,11.15,221.0,12.35,13.68,47.59359,-54.27349
2022-05-11 21:54:00+00:00,214.0,11.13,211.0,13.35,13.68,47.59359,-54.27349
2022-05-11 22:04:00+00:00,211.0,9.82,218.0,11.37,13.68,47.59359,-54.27349
2022-05-11 22:14:01+00:00,211.0,10.25,213.0,12.04,13.21,47.59359,-54.27349
2022-05-11 22:24:01+00:00,214.0,10.12,234.0,13.08,13.21,47.59359,-54.27349
2022-05-11 22:34:01+00:00,212.0,10.24,209.0,11.73,13.21,47.59359,-54.27349
2022-05-11 22:44:01+00:00,210.0,9.88,218.0,11.1,13.21,47.59359,-54.27349
2022-05-11 22:54:01+00:00,209.0,9.35,211.0,10.27,13.21,47.59359,-54.27349
2022-05-11 23:04:01+00:00,207.0,9.65,204.0,10.58,13.21,47.59359,-54.27349
2022-05-11 23:14:00+00:00,209.0,8.88,211.0,10.4,12.65,47.59359,-54.27349
2022-05-11 23:24:00+00:00,211.0,8.69,221.0,10.78,12.65,47.59359,-54.27349
2022-05-11 23:34:00+00:00,210.0,9.09,216.0,10.32,12.65,47.59359,-54.27349
2022-05-11 23:44:00+00:00,210.0,9.28,208.0,10.58,12.65,47.59359,-54.27349
2022-05-11 23:54:00+00:00,212.0,8.4,211.0,9.45,12.65,47.59359,-54.27349
